Simultaneous Nadir Overpasses (SNOs) Predictions

Prediction of SNOs between AQUA and GOES-15 Satellite Orbit:

Table of predicted SNOs for the next 14.0 days since TLE Epoch: 3/2/2013
Index Date Time (AQUA) AQUA Lat,Lon GOES-15 Lat,Lon Distance(km) Time Diff (sec)
1 03/03/2013 22:35:23 0.13,-134.93 0.02,-135.35 48.62 80
2 03/05/2013 22:23:13 0.76,-131.98 0.01,-135.36 385.29 80
3 03/06/2013 10:44:29 0.34,-137.13 -0.01,-135.42 194.79 80
4 03/08/2013 10:32:18 -0.24,-134.17 -0.00,-135.42 141.58 80
5 03/08/2013 22:53:42 -0.83,-139.37 0.00,-135.36 454.69 80
6 03/10/2013 10:20:08 -0.89,-131.22 -0.00,-135.42 477.66 80
7 03/10/2013 22:41:31 -0.24,-136.40 0.00,-135.36 118.64 80
8 03/12/2013 22:29:22 0.43,-133.45 0.01,-135.36 217.20 80
9 03/13/2013 10:50:37 0.65,-138.61 -0.00,-135.41 363.32 80
10 03/15/2013 10:38:26 0.04,-135.65 -0.00,-135.40 28.00 80




NCC Satellite Simultaneous Nadir Overpasses (SNOs) Prediction Service
